[[{"header":{"parameterUnit":"m.s-1","parameterCategory":1,"la1":30.2991,"la2":30.254,"lo1":-89.0895,"lo2":-89.0444,"dy":0.0017,"dx":0.0017,"nx":28,"ny":28,"refTime":"2025-03-10T21:00:00:Z","depth":0,"parameterNumber":2,"parameterNumberName":"U-component_of_WINDS"},"data":[0,0,0,0,0,0,0,0,0,0,0,0,0,0,0,0,0,0,0,0,0,0,0,0,0,0,0,0,0,0,0,0,0,0,0,0,0,0,0,0,0,0,0,0,0,0,0,0,0,0,0,0,0,0,0,0,0,0,0.3376,0.3378,0,0.355,0.3552,0.3554,0.3638,0.3637,0.3637,0.3637,0.3818,0.3823,0.3828,0,0,0,0,0,0,0,0,0,0,0,0,0,0.3117,0.3121,0.3376,0.3378,0.338,0.355,0.3553,0.3555,0.3638,0.3637,0.3637,0.3637,0.3817,0.3822,0.3828,0,0,0,0,0,0,0,0,0,0,0,0,0,0.3254,0.3122,0.3375,0.3442,0.345,0.355,0.3553,0.3556,0.3638,0.3637,0.3637,0.3637,0.3815,0.3822,0.3829,0.3877,0,0,0.3851,0.3855,0,0,0,0,0,0,0,0,0.3246,0.3263,0.343,0.3437,0.3446,0.3572,0.3528,0.3663,0.3638,0.3566,0.3637,0.3637,0.3737,0.375,0.3783,0.3885,0.3893,0.3852,0.3857,0.386,0.3862,0,0,0,0,0,0,0,0.3236,0.3256,0.3445,0.3432,0.3442,0.3464,0.3483,0.3554,0.365,0.3572,0.3579,0.3598,0.3741,0.3776,0.3788,0.3896,0.3852,0.3858,0.3863,0.3866,0.4048,0.4048,0,0,0,0,0,0,0.3216,0.3248,0.344,0.345,0.3344,0.3468,0.349,0.3532,0.3649,0.3667,0.3598,0.3601,0.3764,0.378,0.3795,0.386,0.386,0.3867,0.3871,0.4047,0.4048,0.4048,0,0,0,0,0,0,0.321,0.3232,0.3432,0.3351,0.3378,0.3473,0.3519,0.3535,0.3571,0.3669,0.3687,0.3616,0.3764,0.3785,0.3856,0.3867,0.387,0.3877,0.4047,0.4047,0.4048,0.3989,0,0,0,0,0,0,0.3202,0.3229,0.3248,0.3351,0.3382,0.349,0.352,0.3539,0.3583,0.3589,0.3691,0.3707,0.3766,0.3845,0.3863,0.3877,0.3882,0.4046,0.4047,0.4048,0.3991,0.3988,0.3985,0,0,0,0,0,0.3193,0.3224,0.3248,0.3271,0.3407,0.349,0.3508,0.3574,0.3583,0.3603,0.3667,0.3704,0.3863,0.3851,0.3873,0.3889,0.4046,0.4047,0.4048,0.3992,0.3988,0.3985,0,0,0,0,0,0,0.3121,0.3239,0.3267,0.3333,0.3401,0.3504,0.3531,0.3568,0.3635,0.3638,0.3717,0.374,0.3804,0.3854,0.3839,0.3943,0.3958,0.3963,0.3908,0.3905,0.3903,0.389,0.3888,0,0,0,0,0,0.3113,0.317,0.327,0.3319,0.3351,0.3435,0.3474,0.3518,0.3592,0.3622,0.369,0.3761,0.3827,0.3869,0.3935,0.3998,0.4022,0.402,0.4017,0.4015,0.4019,0.4057,0.4058,0.4051,0.4051,0.4051,0,0,0.3097,0.3168,0.3199,0.3306,0.3364,0.3422,0.3459,0.3518,0.3563,0.3631,0.3703,0.3756,0.384,0.3908,0.3941,0.3951,0.4026,0.4016,0.4013,0.4019,0.4058,0.4059,0.4059,0.4052,0.4052,0.4052,0,0,0.3097,0.3156,0.3204,0.3261,0.3348,0.3404,0.3415,0.3513,0.3551,0.3624,0.3677,0.3731,0.3843,0.3901,0.3945,0.3968,0.4006,0.3988,0.3974,0.4011,0.4011,0.4012,0.4021,0.4024,0.3991,0.3991,0.3991,0,0.3066,0.3155,0.3224,0.3281,0.3327,0.3391,0.344,0.3493,0.3597,0.3628,0.3638,0.378,0.3841,0.3924,0.393,0.3963,0.3979,0.3977,0.4005,0.4007,0.4009,0.4019,0.4022,0.3988,0.3989,0.3989,0.3989,0,0.3113,0.3174,0.3202,0.3301,0.335,0.3403,0.3481,0.3522,0.3563,0.3618,0.3692,0.3768,0.3851,0.3874,0.3914,0.3963,0.3967,0.399,0.4007,0.4005,0.4016,0.402,0.3985,0.3985,0.3986,0.3987,0,0,0.3073,0.321,0.3219,0.3265,0.3366,0.3415,0.3471,0.3552,0.3587,0.3657,0.3707,0.38,0.3822,0.3872,0.392,0.3952,0.3967,0.3972,0.3975,0.3969,0.4026,0.4009,0.4012,0.3992,0.3993,0.3994,0.402,0,0.3088,0.3191,0.3255,0.3333,0.3391,0.3453,0.3502,0.357,0.3623,0.3681,0.374,0.3805,0.3829,0.3859,0.3894,0.3957,0.398,0.3957,0.404,0.4043,0.4018,0.4017,0.3999,0.402,0.4024,0.4025,0.4025,0,0.3119,0.3187,0.327,0.3366,0.3393,0.3436,0.3516,0.357,0.3648,0.3685,0.3741,0.3789,0.3852,0.3863,0.3952,0.3935,0.3974,0.401,0.4013,0.4024,0.4034,0.4029,0.4028,0.4031,0.4032,0.4032,0.4031,0,0.3082,0.3195,0.326,0.3298,0.3411,0.344,0.3488,0.3567,0.3611,0.3682,0.3712,0.3788,0.383,0.3889,0.3957,0.3958,0.4039,0.4056,0.4072,0.4071,0.4087,0.4085,0.4092,0.411,0.411,0.411,0.411,0,0.3093,0.3142,0.3245,0.3285,0.3342,0.3416,0.347,0.3524,0.3594,0.3646,0.3704,0.3752,0.3839,0.3898,0.3951,0.4018,0.4036,0.4068,0.4082,0.4063,0.4059,0.409,0.4091,0.4111,0.411,0.411,0.411,0,0.3062,0.3133,0.3208,0.3309,0.3335,0.3373,0.346,0.3502,0.3558,0.3623,0.3643,0.3731,0.3804,0.3877,0.3975,0.4012,0.4076,0.4095,0.405,0.4057,0.407,0.4068,0.4098,0.4106,0.4117,0.4116,0.4116,0,0.3064,0.3103,0.3208,0.3247,0.3294,0.3356,0.3402,0.3477,0.3523,0.3616,0.3646,0.3723,0.3788,0.3902,0.3975,0.4051,0.4072,0.4077,0.4084,0.4064,0.4073,0.4071,0.4075,0.4075,0.4074,0.4074,0.4074,0,0.3061,0.3094,0.3158,0.3235,0.3288,0.3352,0.3418,0.3447,0.3534,0.3583,0.3658,0.3708,0.3808,0.3884,0.3969,0.402,0.4062,0.4071,0.4079,0.4061,0.4033,0.4049,0.4043,0.407,0.407,0.4071,0.4071,0.4071,0.3047,0.3085,0.3165,0.3235,0.3293,0.3353,0.3398,0.346,0.3523,0.361,0.365,0.3725,0.3805,0.3922,0.3972,0.4033,0.4045,0.4056,0.4059,0.4061,0.4057,0.4023,0.4049,0.4049,0.4049,0.4049,0.4049,0,0.3048,0.3103,0.3166,0.3257,0.3312,0.3346,0.3421,0.3465,0.353,0.36,0.3663,0.375,0.3824,0.3903,0.3982,0.4016,0.4037,0.4034,0.4033,0.4044,0.4042,0.4027,0.4016,0.4016,0.4016,0.4016,0.4016,0.4016,0.3055,0.3121,0.3164,0.326,0.3315,0.3389,0.3429,0.3486,0.3542,0.3636,0.3698,0.3749,0.3823,0.3908,0.3978,0.4,0.4027,0.4019,0.4046,0.4042,0.4044,0.4047,0.4034,0.4023,0.4023,0.4044,0.4044,0.4044]},{"header":{"parameterUnit":"m.s-1","parameterCategory":1,"la1":30.2991,"la2":30.254,"lo1":-89.0895,"lo2":-89.0444,"dy":0.0017,"dx":0.0017,"nx":28,"ny":28,"refTime":"2025-03-10T21:00:00:Z","depth":0,"parameterNumber":3,"parameterNumberName":"V-component_of_WINDS"},"data":[0,0,0,0,0,0,0,0,0,0,0,0,0,0,0,0,0,0,0,0,0,0,0,0,0,0,0,0,0,0,0,0,0,0,0,0,0,0,0,0,0,0,0,0,0,0,0,0,0,0,0,0,0,0,0,0,0,0,3.461,3.4611,0,3.4618,3.4618,3.4618,3.4577,3.4576,3.4575,3.4573,3.458,3.4581,3.4582,0,0,0,0,0,0,0,0,0,0,0,0,0,3.4559,3.456,3.461,3.4611,3.4611,3.4618,3.4618,3.4618,3.4577,3.4576,3.4574,3.4573,3.4579,3.4581,3.4582,0,0,0,0,0,0,0,0,0,0,0,0,0,3.4575,3.456,3.461,3.4591,3.4589,3.4618,3.4618,3.4618,3.4577,3.4576,3.4574,3.4572,3.4579,3.4581,3.4583,3.463,0,0,3.4588,3.4589,0,0,0,0,0,0,0,0,3.4574,3.4577,3.4594,3.4592,3.4591,3.4595,3.4602,3.4622,3.4578,3.4582,3.4573,3.4571,3.4586,3.4587,3.4593,3.463,3.4631,3.4589,3.459,3.4591,3.4591,0,0,0,0,0,0,0,3.4573,3.4577,3.4613,3.4594,3.4592,3.4581,3.4582,3.4606,3.4594,3.4581,3.4578,3.458,3.4585,3.4591,3.4592,3.4631,3.4589,3.459,3.4591,3.4592,3.4708,3.471,0,0,0,0,0,0,3.4575,3.4576,3.4613,3.4614,3.4578,3.4584,3.4584,3.4595,3.4593,3.4592,3.4582,3.4578,3.4588,3.459,3.4593,3.4649,3.4591,3.4592,3.4594,3.4706,3.4708,3.4711,0,0,0,0,0,0,3.4574,3.4579,3.4613,3.4594,3.4598,3.4587,3.4599,3.4596,3.4602,3.4594,3.4591,3.459,3.4587,3.459,3.4621,3.4648,3.4593,3.4595,3.4704,3.4707,3.4709,3.4761,0,0,0,0,0,0,3.4573,3.4578,3.4597,3.4595,3.4599,3.4642,3.4601,3.4598,3.4606,3.4601,3.4601,3.4599,3.4586,3.4619,3.4623,3.465,3.4596,3.4701,3.4705,3.4709,3.4757,3.4765,3.4772,0,0,0,0,0,3.4571,3.461,3.4598,3.4603,3.4621,3.4644,3.4646,3.4631,3.4608,3.4626,3.4621,3.4599,3.4644,3.4622,3.4627,3.4655,3.47,3.4704,3.4708,3.4753,3.4763,3.4772,0,0,0,0,0,0,3.4615,3.461,3.4596,3.4636,3.4641,3.4637,3.4659,3.4642,3.4653,3.4648,3.4628,3.4628,3.4663,3.4662,3.4637,3.47,3.4668,3.4674,3.47,3.471,3.4718,3.4718,3.4598,0,0,0,0,0,3.463,3.4649,3.4643,3.4679,3.4682,3.467,3.4679,3.4667,3.4671,3.4673,3.4669,3.4673,3.4689,3.4699,3.4712,3.4756,3.4755,3.4777,3.4785,3.4791,3.4797,3.482,3.483,3.4725,3.4725,3.4725,0,0,3.466,3.4659,3.4672,3.4688,3.469,3.471,3.4672,3.4695,3.4709,3.4676,3.4706,3.4703,3.4707,3.4745,3.4761,3.4744,3.4825,3.4797,3.4802,3.4804,3.4826,3.4836,3.4844,3.4728,3.4727,3.4727,0,0,3.4725,3.4726,3.4757,3.476,3.4764,3.4756,3.4763,3.4762,3.476,3.4789,3.4765,3.4781,3.4808,3.4811,3.4817,3.4884,3.4864,3.4888,3.493,3.4953,3.4961,3.4968,3.4993,3.5002,3.4893,3.4894,3.4894,0,3.4762,3.4791,3.4774,3.4799,3.4807,3.4778,3.4808,3.4812,3.482,3.4826,3.4807,3.484,3.484,3.4879,3.4895,3.49,3.4908,3.4889,3.4961,3.4968,3.4975,3.4998,3.5007,3.4897,3.4896,3.4896,3.4896,0,3.4837,3.4858,3.4882,3.4891,3.4901,3.4929,3.4916,3.4928,3.4915,3.4908,3.4939,3.4938,3.4951,3.4959,3.4946,3.4996,3.4986,3.4965,3.4932,3.4988,3.501,3.5019,3.4901,3.49,3.4899,3.4898,0,0,3.4931,3.4931,3.494,3.4944,3.4947,3.4962,3.4988,3.5002,3.5013,3.5019,3.5041,3.5064,3.5044,3.505,3.5037,3.5057,3.5112,3.5033,3.5033,3.5049,3.5167,3.5184,3.5195,3.5098,3.51,3.5101,3.5167,0,3.4995,3.5041,3.5026,3.5072,3.5091,3.5064,3.5087,3.5091,3.5086,3.5101,3.5095,3.5112,3.5084,3.5088,3.5106,3.5101,3.5135,3.5096,3.5118,3.512,3.512,3.5206,3.5224,3.5287,3.5176,3.5177,3.5178,0,3.5077,3.5088,3.5136,3.5136,3.5143,3.5164,3.5175,3.519,3.5194,3.5189,3.5196,3.5179,3.5204,3.517,3.5205,3.5179,3.5187,3.5186,3.5188,3.519,3.5153,3.5212,3.5306,3.5316,3.5191,3.519,3.5189,0,3.5142,3.5168,3.5201,3.5205,3.5205,3.5221,3.5221,3.5223,3.5232,3.5242,3.5248,3.526,3.5267,3.5276,3.5263,3.5239,3.53,3.5265,3.5297,3.5297,3.5311,3.5311,3.5409,3.5315,3.5315,3.5315,3.5314,0,3.5217,3.5247,3.523,3.525,3.5284,3.5266,3.53,3.5297,3.5299,3.5318,3.5294,3.5312,3.5293,3.5309,3.5299,3.533,3.5332,3.5329,3.5326,3.5332,3.5333,3.5338,3.5334,3.5317,3.5317,3.5316,3.5316,0,3.5296,3.5285,3.5319,3.5316,3.5316,3.5341,3.5339,3.5357,3.535,3.5375,3.5379,3.5368,3.5386,3.5374,3.5391,3.5384,3.5425,3.5415,3.5424,3.5422,3.5455,3.5452,3.5561,3.5575,3.547,3.5471,3.5472,0,3.5344,3.5368,3.5368,3.5379,3.5382,3.54,3.5409,3.5393,3.5403,3.5409,3.5427,3.5443,3.5455,3.5485,3.5478,3.5492,3.5483,3.552,3.5485,3.549,3.5485,3.5484,3.5486,3.5528,3.5529,3.553,3.5531,0,3.5433,3.5426,3.5441,3.5455,3.5467,3.5476,3.5483,3.5494,3.5477,3.549,3.5509,3.5518,3.5536,3.5553,3.5564,3.5564,3.5545,3.5542,3.555,3.5557,3.5561,3.556,3.5445,3.5539,3.5539,3.5538,3.5537,3.5537,3.5499,3.5518,3.5522,3.5539,3.5543,3.5551,3.5568,3.5564,3.5579,3.5593,3.5582,3.5604,3.5607,3.562,3.5622,3.5639,3.5624,3.5635,3.5639,3.5642,3.5647,3.5558,3.5641,3.5641,3.564,3.564,3.564,0,3.5587,3.5587,3.5604,3.5615,3.5629,3.561,3.5617,3.563,3.565,3.5654,3.5667,3.5688,3.5704,3.5699,3.5713,3.5727,3.5719,3.5731,3.5731,3.5731,3.566,3.5652,3.5738,3.5738,3.5738,3.5738,3.5738,3.5738,3.5634,3.5667,3.5661,3.5695,3.5695,3.5717,3.5723,3.573,3.5734,3.5759,3.5772,3.5769,3.5769,3.5783,3.5797,3.5795,3.5801,3.5817,3.5812,3.5746,3.5736,3.5727,3.5719,3.5819,3.5819,3.5883,3.5883,3.5884]}]]